Toledo Metcalf, OH

3:20 PM EDT on May 22, 2017 (GMT -0400)
Metcalf

Weather History for KTDZ - January, 2014

Change the Weather History Date:

Wednesday, January 8, 2014

  Actual Average (KTOL) Record (KTOL)
Temperature  
Mean Temperature 6 °F -  
Max Temperature 17 °F 27 °F 62 °F (1965)
Min Temperature -4 °F 10 °F -14 °F (1968)
Degree Days  
Heating Degree Days 58    
Moisture  
Dew Point 2 °F    
Average Humidity 75    
Maximum Humidity 80    
Minimum Humidity 65    
Precipitation  
Precipitation 0.00 in - - ()
Sea Level Pressure  
Sea Level Pressure 30.45 in    
Wind  
Wind Speed 4 mph (SW)    
Max Wind Speed 10 mph    
Max Gust Speed -    
Visibility 10 miles    
Events      
Averages and records for this station are not official NWS values.
T = Trace of Precipitation, MM = Missing Value Source: NWS Daily Summary

Daily Weather History Graph

Daily Weather History Graph

Search for Another Location

Airport or City:

Trip Planner

Search our weather history database for the weather conditions in past years. The results will help you decide how hot, cold, wet, or windy it might be!

Date:

Astronomy

Jan. 08, 2014 Rise Set
Actual Time 8:00 AM EST 5:21 PM EST
Civil Twilight 7:29 AM EST 5:52 PM EST
Nautical Twilight 6:54 AM EST 6:26 PM EST
Astronomical Twilight 6:21 AM EST 7:00 PM EST
Moon 12:15 PM EST (1/8) 1:02 AM EST (1/8)
Length of Visible Light 10h 22m
Length of Day
9h 20m
First Quarter, 56% of the Moon is Illuminated
Jan 8
First Quarter
Jan 15
Full
Jan 24
Last Quarter
Jan 30
New
Feb 6
First Quarter

Hourly Weather History & Observations

Time (EST) Temp. Windchill Dew Point Humidity Pressure Visibility Wind Dir Wind Speed Gust Speed Precip Events Conditions
12:53 AM -2.0 °F -12.2 °F -7.1 °F 79% 30.41 in 10.0 mi SSW 4.6 mph - N/A   Clear
1:53 AM -4.0 °F - -9.0 °F 79% 30.40 in 10.0 mi Calm Calm - N/A   Clear
2:53 AM -4.0 °F - -9.0 °F 79% 30.42 in 10.0 mi Calm Calm - N/A   Clear
3:53 AM -4.0 °F - -9.9 °F 76% 30.43 in 10.0 mi Calm Calm - N/A   Scattered Clouds
4:53 AM -0.0 °F -7.9 °F -5.1 °F 79% 30.42 in 10.0 mi South 3.5 mph - N/A   Overcast
5:53 AM 3.9 °F -3.4 °F -2.0 °F 76% 30.41 in 10.0 mi SSE 3.5 mph - N/A   Overcast
6:53 AM 6.1 °F -4.3 °F -0.9 °F 73% 30.40 in 10.0 mi South 5.8 mph - N/A   Mostly Cloudy
7:53 AM 6.1 °F -2.8 °F -0.9 °F 73% 30.42 in 10.0 mi South 4.6 mph - N/A   Clear
8:53 AM 6.1 °F - 1.0 °F 80% 30.44 in 10.0 mi Calm Calm - N/A   Clear
9:53 AM 9.0 °F -0.9 °F 3.9 °F 80% 30.45 in 10.0 mi South 5.8 mph - N/A   Clear
10:53 AM 14.0 °F 1.2 °F 5.0 °F 67% 30.46 in 10.0 mi SSW 10.4 mph - N/A   Clear
11:53 AM 15.1 °F 4.2 °F 6.1 °F 68% 30.45 in 10.0 mi SSW 8.1 mph - N/A   Clear
12:53 PM 16.0 °F 3.6 °F 6.1 °F 65% 30.42 in 10.0 mi SW 10.4 mph - N/A   Partly Cloudy
1:53 PM 15.1 °F 4.2 °F 6.1 °F 68% 30.41 in 10.0 mi SW 8.1 mph - N/A   Partly Cloudy
2:53 PM 16.0 °F 4.4 °F 8.1 °F 71% 30.42 in 10.0 mi SSW 9.2 mph - N/A   Scattered Clouds
3:53 PM 17.1 °F 7.6 °F 8.1 °F 68% 30.43 in 10.0 mi SW 6.9 mph - N/A   Clear
4:53 PM 15.1 °F 5.2 °F 7.0 °F 70% 30.45 in 10.0 mi WSW 6.9 mph - N/A   Clear
5:53 PM 14.0 °F 8.2 °F 7.0 °F 74% 30.46 in 10.0 mi WSW 3.5 mph - N/A   Mostly Cloudy
6:53 PM 12.0 °F 5.9 °F 6.1 °F 77% 30.48 in 9.0 mi SSW 3.5 mph - N/A   Clear
7:53 PM 10.9 °F 2.9 °F 5.0 °F 77% 30.50 in 9.0 mi SW 4.6 mph - N/A   Clear
8:53 PM 12.0 °F 5.9 °F 7.0 °F 80% 30.51 in 9.0 mi West 3.5 mph - N/A   Clear
9:53 PM 12.9 °F 5.2 °F 7.0 °F 77% 30.52 in 9.0 mi West 4.6 mph - N/A   Clear
10:53 PM 12.0 °F 2.7 °F 6.1 °F 77% 30.54 in 10.0 mi WNW 5.8 mph - N/A   Clear
11:53 PM 10.9 °F 4.7 °F 5.0 °F 77% 30.55 in 9.0 mi WSW 3.5 mph - N/A   Clear